Mark Borodin

Olheiro - Zenit
4 Jun 2028
Domingo
Processo

Personalidade

Adaptabilidade (16) Ambição (1) Controvérsia (6) Lealdade (15) Pressão (19) Profissionalismo (6) Espírito Esportivo (2) Temperamento (11)

Perfil

Estilo de Treinamento Democrático
Licença Nacional A
Determinação 7
Gestão de Pessoas 15
Motivação 12
Disciplina 6
Satisfação no Trabalho
100%
Fadiga
0%
Função Olheiro
Salário 66.5K p/s
Contrato 14.03.2029

Desempenho

Comportamento Bom
Eficácia do Treinamento
51%
Desenvolvimento do Jogador
35%
Prevenção de Lesões
65%
Implementação Tática
30%

Monitorando agora

46
Jogador Clube Status Habilidade Confiança Observado Última observação Último voto
Marcus Tavernier Bournemouth Ativo 162 / 148 40% 2 22.02.2028 -
Assane Diao Como Ativo 162 / 150 40% 1 22.02.2028 -
Rubens Dinamo Moscow Ativo 134 / 134 40% 1 19.02.2028 -
Óscar Mingueza Crystal Palace Ativo 154 / 150 40% 1 19.02.2028 -
Mohamed-Ali Cho Hull City Ativo 131 / 149 40% 1 17.02.2028 -
Bitello Dinamo Moscow Ativo 138 / 136 40% 1 17.02.2028 -
Koki Saito Queens Park Rangers Ativo 129 / 137 40% 1 17.02.2028 -
Chemsdine Talbi Sunderland Ativo 137 / 145 40% 1 16.02.2028 -
Gonzalo Fulham Ativo 161 / 152 40% 1 13.02.2028 -
Carlos Vicente Birmingham Ativo 145 / 147 40% 1 13.02.2028 -
Nicolás González Juventus Ativo 149 / 157 40% 1 11.02.2028 -
Zito Luvumbo Cagliari Ativo 145 / 132 40% 1 11.02.2028 -
Damián Puebla Dinamo Moscow Rejeitado 123 / 128 40% 1 11.02.2028 Mais informações
Javi Puado Espanyol Ativo 138 / 149 40% 2 08.02.2028 -
Damián Bobadilla Sport Recife Ativo 131 / 128 40% 1 08.02.2028 -
Samuel Chukwueze AC Milan Ativo 143 / 148 40% 1 08.02.2028 -
Matteo Ruggeri Aston Villa Ativo 154 / 158 40% 1 07.02.2028 -
Ilias Akhomach Villarreal Ativo 136 / 150 40% 1 07.02.2028 -
Christian Krasnodar Perdido 129 / 134 40% 2 28.01.2028 -
Todd Cantwell Blackburn Rovers Perdido 136 / 130 40% 1 28.01.2028 -
Luca Langoni Besiktas Perdido 134 / 139 40% 1 28.01.2028 -
Matvey Kislyak CSKA Moscow Ativo 137 / 136 40% 2 30.08.2027 -
Alexandr Chernikov Krasnodar Ativo 133 / 132 40% 1 30.08.2027 -
Gerard Martín Barcelona Ativo 163 / 147 40% 1 16.08.2027 -
Gustavo Hamer Sheffield United Ativo 150 / 141 40% 1 05.08.2027 -
Alex Bangura Middlesbrough Ativo 129 / 129 40% 3 04.08.2027 -
Josh King Chelsea Ativo 147 / 153 40% 2 04.08.2027 -
Imrân Louza Watford Ativo 123 / 144 40% 1 04.08.2027 -
Brodie Spencer Oxford United Ativo 134 / 123 40% 1 01.08.2027 -
Michel Ndary Adopo Cagliari Ativo 135 / 141 40% 1 31.07.2027 -
Federico Baschirotto Cremonese Ativo 135 / 139 40% 2 27.07.2027 -
Jesús Vázquez Valencia Ativo 153 / 139 40% 1 19.07.2027 -
Danil Glebov Dinamo Moscow Ativo 138 / 136 40% 1 14.07.2027 -
Juan Cáceres Dinamo Moscow Ativo 137 / 123 40% 1 14.07.2027 -
Mahmoud Al Hashmi CSKA Moscow Rejeitado 140 / 122 40% 1 13.07.2027 Mais informações
Thijs Dallinga Bologna Ativo 124 / 130 40% 3 12.07.2027 -
Mateo Joseph Leeds United Ativo 136 / 126 40% 1 04.07.2027 -
Ivan Oblyakov CSKA Moscow Ativo 136 / 126 40% 1 04.07.2027 -
Ciprian Dragusin Krasnodar Ativo 147 / 142 40% 2 26.06.2027 -
Ransford Königsdörffer Mainz 05 Ativo 141 / 127 40% 3 25.06.2027 -
Alexandr Siljanov Lokomotiv Moscow Ativo 135 / 134 40% 1 24.06.2027 -
Álex Calatrava Espanyol Ativo 143 / 139 40% 1 22.06.2027 -
Eliás Montiel Athletic Bilbao Ativo 133 / 131 40% 1 22.06.2027 -
Batxi Krasnodar Ativo 132 / 133 40% 1 21.06.2027 -
Kasper Høgh Flamengo Ativo 127 / 137 40% 1 20.06.2027 -
Younes Ebnoutalib Eintracht Frankfurt Ativo 144 / 139 40% 2 17.06.2027 -